Regional Weather Roundup
Issued by NWS

Home | Current Version | Previous Version | Text Only | Print | Product List | Glossary Off
Versions: 1 2 3 4 5 6 7 8 9 10 11 12 13 14 15 16 17 18 19 20 21 22 23 24 25 26 27 28 29 30 31 32 33 34 35 36 37 38 39 40 41 42 43 44 45 46 47 48 49 50

000
ASUS45 KTFX 182310
RWRMT
MONTANA REGIONAL WEATHER ROUNDUP
NATIONAL WEATHER SERVICE GREAT FALLS MT
400 PM MST WED JAN 18 2017

NOTE: "FAIR" INDICATES FEW OR NO CLOUDS BELOW 12000 FEET WITH NO
SIGNIFICANT WEATHER AND/OR OBSTRUCTIONS TO VISIBILITY.

MTZ001>007-043-190000-
WEST OF THE DIVIDE

CITY           SKY/WX    TMP DP  RH WIND       PRES   REMARKS
KALISPELL      LGT SNOW  29  27  92 E6        29.63S WCI  23
MISSOULA       MOCLDY    28  22  78 N7        29.67R WCI  21
BUTTE          CLOUDY    38  22  52 CALM      29.69S
MULLAN PASS    FOG       33  30  88 VRB3      29.59F VSB 1
ANACONDA         N/A     45  27  49 SE12      29.66S
DEER LODGE       N/A     43  28  56 SE8       29.65F
EUREKA           N/A     37  34  87 S16       29.57F WCI  28
HAMILTON         N/A     48  28  46 SE15      29.63S
RONAN            N/A     32  29  89 N1        29.70R
$$

MTZ008-052>055-190000-
SOUTHWEST MONTANA

CITY           SKY/WX    TMP DP  RH WIND       PRES   REMARKS
BOZEMAN        CLOUDY    31  22  69 SE5       29.70F
DILLON         CLOUDY    46  18  32 S7        29.72F
W YELLOWSTONE  CLOUDY    27  14  59 W3        29.88F
ENNIS          PTCLDY    36  19  51 S18       29.77F WCI  25
TWIN BRIDGES     N/A     34  18  52 SW7       29.76F WCI  28
$$

MTZ009-010-012-014-046-048-049-054-190000-
EAST SLOPES AND CENTRAL MONTANA

CITY           SKY/WX    TMP DP  RH WIND       PRES   REMARKS
CUT BANK       CLEAR     48  33  56 SW16      29.44F
GREAT FALLS    CLOUDY    47  29  49 S16       29.51F
MALMSTROM AFB  CLOUDY    46  31  55 S14       29.53
HELENA         CLOUDY    32  21  64 S5        29.64F
AUGUSTA          N/A     44  33  64 S18       29.51R
BOWMANS CRNR     N/A     39  27  62 S24       29.53F WCI  28
CHOTEAU          N/A     48  34  57 SW17G25   29.51R
CONRAD           N/A     44  35  70 E13       29.53F
POWER            N/A     42  30  63 SE13      29.50F
RAYNESFORD       N/A     52  25  35 SW13      29.56F
ULM              N/A     43  31  63 MISG      29.53F
$$

MTZ011-013-016-021-045-047-050-051-190000-
NORTH CENTRAL MONTANA

CITY           SKY/WX    TMP DP  RH WIND       PRES   REMARKS
HAVRE          PTCLDY    43  31  62 SW13      29.49S
LEWISTOWN      CLOUDY    42  28  57 SW10      29.58S
N BAR RANCH      N/A     48  28  46 E12       29.58S
CHINOOK          N/A     46  32  57 W15       29.47R
DENTON         MOCLDY    45  30  55 SW26G33   29.51F
FORT BENTON      N/A     54  30  40 MISG      29.53F
GEYSER           N/A     51  28  41 W22       29.53S
GRASS RANGE      N/A     52  25  35 W14G20    29.52F
JUDITH GAP     MOCLDY    42  25  51 W21       29.60F
ROY            MOCLDY    51  29  41 MISG      29.53R
STANFORD         N/A     50  29  44 S5        29.57S
WINIFRED         N/A     48  28  46 SW12      29.55S
$$

MTZ017>020-022>027-061-062-190000-
NORTHEAST MONTANA

CITY           SKY/WX    TMP DP  RH WIND       PRES   REMARKS
GLASGOW          N/A    N/A N/A N/A MISG        N/A
JORDAN           N/A     42  29  59 W5        29.54S
SIDNEY         CLOUDY    35  26  69 S10       29.58R WCI  27
WOLF POINT     CLOUDY    33  25  72 CALM      29.55R
PLENTYWOOD       N/A     34  27  75 SE7       29.54R WCI  28
POPLAR           N/A     39  27  60 S8        29.55S
SCOBEY           N/A     36  24  62 S1        29.53S
$$

MTZ028>42-056>058-190000-
SOUTHCENTRAL AND SOUTHEAST MONTANA

CITY           SKY/WX    TMP DP  RH WIND       PRES   REMARKS
BAKER          CLOUDY    31  25  78 SE3       29.63R
BILLINGS       CLOUDY    42  22  44 SW21      29.63S
LIVINGSTON     CLOUDY    45  15  30 SW30G49   29.67S
MILES CITY     CLEAR     33  24  69 S13       29.60F WCI  24
BIG TIMBER     CLEAR     48  18  29 W23       29.66F
EKALAKA          N/A     38  23  55 SE9       29.64S WCI  31
FORSYTH          N/A     45  25  45 SW5       29.58F
HARLOWTON      MOCLDY    47  18  31 NW22      29.61S
LAUREL           N/A     40  22  49 SW13      29.66F
ROUNDUP          N/A     44  21  40 S12       29.55S
$$

REGIONAL REPORTS...DAKOTAS

CITY           SKY/WX    TMP DP  RH WIND       PRES   REMARKS
WILLISTON      CLOUDY    37  26  64 SW6       29.57S
MINOT          CLEAR     41  28  60 SW16      29.55R
DICKINSON      CLOUDY    38  26  62 W5        29.59R
BEACH            N/A     36  27  69 S8        29.63F WCI  29
CROSBY           N/A     34  28  80 S17G24    29.55R WCI  23
TIOGA            N/A     36  30  80 SW17      29.57R WCI  25
WATFORD CITY     N/A     37  28  70 CALM      29.58S
BISMARCK       CLOUDY    27  20  75 SE5       29.66S
GRAND FORKS    CLOUDY    30  23  75 SE12      29.67S WCI  20
FARGO          CLEAR     35  26  69 S10       29.73R WCI  27
BUFFALO SD       N/A     37  26  64 SW5       29.58S
RAPID CITY     CLOUDY    35  25  66 E6        29.63F WCI  30
$$

REGIONAL REPORTS...WYOMING/IDAHO/WASHINGTON

CITY           SKY/WX    TMP DP  RH WIND       PRES   REMARKS
GILLETTE       CLOUDY    47  24  40 S5        29.66R
SHERIDAN       CLEAR     30  20  66 CALM      29.62R
BUFFALO WY     CLOUDY    41  25  53 S5        29.65S
CODY           CLOUDY    26  17  68 CALM      29.73S
YELLOWSTONE LA   N/A     22  16  78 CALM      29.90F
IDAHO FALLS    CLOUDY    17  11  77 N8        29.92F WCI   7
SALMON         CLOUDY    12   5  73 CALM      29.85F
BOISE          SNOW      27  25  92 NE6       29.85F VSB 1/4 WCI  20
SPOKANE        CLOUDY    40  33  76 SE9       29.56S
$$

REGIONAL REPORTS...ALBERTA

CITY           SKY/WX    TMP DP  RH WIND       PRES   REMARKS
EDMONTON       MOCLDY    39  27  60 NE8       29.17S
CALGARY        MOCLDY    45  28  53 SE12      29.23F
LETHBRIDGE     PTCLDY    41  34  75 SW10      29.37F
MEDICINE HAT   MOCLDY    46  36  66 SW20G29   29.38F
WATERTON GATE    N/A     43  30  61 SW28G38     N/A
MILK RIVER       N/A     46  34  61 SW16G23     N/A
ONEFOUR          N/A     46  34  61 W1          N/A
$$

REGIONAL REPORTS...SASKATCHEWAN

CITY           SKY/WX    TMP DP  RH WIND       PRES   REMARKS
SWIFT CURRENT  MOCLDY    41  34  75 SW15      29.38S
REGINA         MOCLDY    37  30  75 S8        29.43F WCI  31
SASKATOON      MOCLDY    41  32  70 SW15      29.30R
CYPRESS HILLS    N/A     41  30  65 SW16        N/A
VAL MARIE        N/A     41  30  65 W7          N/A
ROCKGLEN         N/A     41  30  65 SW10        N/A
ASSINIBOIA       N/A     39  34  81 S6          N/A
$$



USA.gov is the U.S. government's official web portal to all federal, state and local government web resources and services.